Time,TemperatureF,DewpointF,PressureIn,WindDirection,WindDirectionDegrees,WindSpeedMPH,WindSpeedGustMPH,Humidity,HourlyPrecipIn,Conditions,Clouds,dailyrainin,SoftwareType,DateUTC
2013-04-23 00:01:00,68.8,64.8,30.05,East,84,5.0,8.0,87,0.00,,,0.00,WeatherCatV1.15B25,2013-04-23 04:01:00,
2013-04-23 00:06:00,68.7,64.7,30.05,ENE,67,0.0,5.0,87,0.00,,,0.00,WeatherCatV1.15B25,2013-04-23 04:06:00,
2013-04-23 00:11:00,68.6,64.6,30.05,ENE,68,0.0,6.0,87,0.00,,,0.00,WeatherCatV1.15B25,2013-04-23 04:11:00,
2013-04-23 00:16:00,68.6,64.9,30.05,North,5,0.0,5.0,88,0.00,,,0.00,WeatherCatV1.15B25,2013-04-23 04:16:00,
2013-04-23 00:21:00,68.5,64.5,30.05,NE,45,2.0,11.0,87,0.00,,,0.00,WeatherCatV1.15B25,2013-04-23 04:21:00,
2013-04-23 00:26:00,68.4,64.7,30.05,ESE,103,2.0,5.0,88,0.00,,,0.00,WeatherCatV1.15B25,2013-04-23 04:26:00,
2013-04-23 00:31:00,68.3,64.6,30.05,NNE,20,0.0,1.0,88,0.00,,,0.00,WeatherCatV1.15B25,2013-04-23 04:31:00,
2013-04-23 00:36:00,68.2,64.5,30.05,North,355,1.0,4.0,88,0.00,,,0.00,WeatherCatV1.15B25,2013-04-23 04:36:00,
2013-04-23 00:41:00,68.1,64.4,30.05,NNE,24,0.0,5.0,88,0.00,,,0.00,WeatherCatV1.15B25,2013-04-23 04:41:00,
2013-04-23 00:46:00,68.0,64.6,30.05,NNW,345,4.0,6.0,89,0.00,,,0.00,WeatherCatV1.15B25,2013-04-23 04:46:00,
2013-04-23 00:51:00,67.8,64.4,30.05,ENE,67,0.0,6.0,89,0.00,,,0.00,WeatherCatV1.15B25,2013-04-23 04:51:00,
2013-04-23 00:56:00,67.7,64.3,30.04,North,5,1.0,6.0,89,0.00,,,0.00,WeatherCatV1.15B25,2013-04-23 04:56:00,
2013-04-23 01:01:00,67.5,64.1,30.04,NNE,31,1.0,7.0,89,0.00,,,0.00,WeatherCatV1.15B25,2013-04-23 05:01:00,
2013-04-23 01:06:00,67.4,64.0,30.04,NE,47,1.0,5.0,89,0.00,,,0.00,WeatherCatV1.15B25,2013-04-23 05:06:00,
2013-04-23 01:11:00,67.3,63.9,30.04,ENE,78,2.0,7.0,89,0.00,,,0.00,WeatherCatV1.15B25,2013-04-23 05:11:00,
2013-04-23 01:16:00,67.2,64.2,30.04,NNE,15,7.0,7.0,90,0.00,,,0.00,WeatherCatV1.15B25,2013-04-23 05:16:00,
2013-04-23 01:21:00,67.1,64.1,30.04,East,83,2.0,7.0,90,0.00,,,0.00,WeatherCatV1.15B25,2013-04-23 05:21:00,
2013-04-23 01:26:00,67.1,64.1,30.04,ENE,69,2.0,4.0,90,0.00,,,0.00,WeatherCatV1.15B25,2013-04-23 05:26:00,
2013-04-23 01:31:00,67.1,64.1,30.04,ENE,63,1.0,1.0,90,0.00,,,0.00,WeatherCatV1.15B25,2013-04-23 05:31:00,
2013-04-23 01:36:00,67.1,64.1,30.04,NNE,23,10.0,11.0,90,0.00,,,0.00,WeatherCatV1.15B25,2013-04-23 05:36:00,
2013-04-23 01:41:00,67.1,63.7,30.04,North,355,0.0,12.0,89,0.00,,,0.00,WeatherCatV1.15B25,2013-04-23 05:41:00,
2013-04-23 01:46:00,67.2,63.8,30.04,North,351,0.0,10.0,89,0.00,,,0.00,WeatherCatV1.15B25,2013-04-23 05:46:00,
2013-04-23 01:51:00,67.3,63.9,30.04,ENE,61,1.0,5.0,89,0.00,,,0.00,WeatherCatV1.15B25,2013-04-23 05:51:00,
2013-04-23 01:56:00,67.3,63.9,30.04,North,11,5.0,6.0,89,0.00,,,0.00,WeatherCatV1.15B25,2013-04-23 05:56:00,
2013-04-23 02:01:00,67.4,64.0,30.04,North,355,5.0,9.0,89,0.00,,,0.00,WeatherCatV1.15B25,2013-04-23 06:01:00,
2013-04-23 02:06:00,67.4,64.0,30.03,ENE,59,1.0,7.0,89,0.00,,,0.00,WeatherCatV1.15B25,2013-04-23 06:06:00,
2013-04-23 02:11:00,67.4,64.0,30.03,NE,48,1.0,5.0,89,0.00,,,0.00,WeatherCatV1.15B25,2013-04-23 06:11:00,
2013-04-23 02:16:00,67.4,64.0,30.03,NNE,33,5.0,8.0,89,0.00,,,0.00,WeatherCatV1.15B25,2013-04-23 06:16:00,
2013-04-23 02:21:00,67.4,64.0,30.03,ENE,63,0.0,8.0,89,0.00,,,0.00,WeatherCatV1.15B25,2013-04-23 06:21:00,
2013-04-23 02:26:00,67.3,63.9,30.03,NE,49,4.0,8.0,89,0.00,,,0.00,WeatherCatV1.15B25,2013-04-23 06:26:00,
2013-04-23 02:31:00,67.3,63.9,30.03,North,355,8.0,8.0,89,0.00,,,0.00,WeatherCatV1.15B25,2013-04-23 06:31:00,
2013-04-23 02:36:00,67.3,63.9,30.03,NE,51,1.0,7.0,89,0.00,,,0.00,WeatherCatV1.15B25,2013-04-23 06:36:00,
2013-04-23 02:41:00,67.2,63.8,30.02,NE,50,1.0,6.0,89,0.00,,,0.00,WeatherCatV1.15B25,2013-04-23 06:41:00,
2013-04-23 02:46:00,67.2,63.8,30.02,ENE,71,2.0,9.0,89,0.00,,,0.00,WeatherCatV1.15B25,2013-04-23 06:46:00,
2013-04-23 02:51:00,67.2,63.8,30.02,NNW,342,6.0,9.0,89,0.00,,,0.00,WeatherCatV1.15B25,2013-04-23 06:51:00,
2013-04-23 02:56:00,67.2,63.8,30.02,NE,39,2.0,9.0,89,0.00,,,0.00,WeatherCatV1.15B25,2013-04-23 06:56:00,
2013-04-23 03:01:00,67.2,63.8,30.02,NE,46,1.0,9.0,89,0.00,,,0.00,WeatherCatV1.15B25,2013-04-23 07:01:00,
2013-04-23 03:06:00,67.2,63.8,30.02,NNW,348,4.0,6.0,89,0.00,,,0.00,WeatherCatV1.15B25,2013-04-23 07:06:00,
2013-04-23 03:11:00,67.1,63.7,30.02,NNE,28,4.0,9.0,89,0.00,,,0.00,WeatherCatV1.15B25,2013-04-23 07:11:00,
2013-04-23 03:16:00,67.1,63.7,30.02,East,82,1.0,2.0,89,0.00,,,0.00,WeatherCatV1.15B25,2013-04-23 07:16:00,
2013-04-23 03:21:00,67.2,63.8,30.02,NE,42,4.0,7.0,89,0.00,,,0.00,WeatherCatV1.15B25,2013-04-23 07:21:00,
2013-04-23 03:26:00,67.1,63.7,30.02,NNE,24,2.0,7.0,89,0.00,,,0.00,WeatherCatV1.15B25,2013-04-23 07:26:00,
2013-04-23 03:31:00,67.1,64.1,30.01,NNE,23,1.0,7.0,90,0.00,,,0.00,WeatherCatV1.15B25,2013-04-23 07:31:00,
2013-04-23 03:36:00,67.1,64.1,30.01,North,351,1.0,5.0,90,0.00,,,0.00,WeatherCatV1.15B25,2013-04-23 07:36:00,
2013-04-23 03:41:00,67.1,64.1,30.01,NE,38,3.0,7.0,90,0.00,,,0.00,WeatherCatV1.15B25,2013-04-23 07:41:00,
2013-04-23 03:46:00,67.1,64.1,30.01,North,5,0.0,5.0,90,0.00,,,0.00,WeatherCatV1.15B25,2013-04-23 07:46:00,
2013-04-23 03:51:00,67.2,64.2,30.01,NNW,340,0.0,2.0,90,0.00,,,0.00,WeatherCatV1.15B25,2013-04-23 07:51:00,
2013-04-23 03:56:00,67.1,64.1,30.01,NNW,329,4.0,7.0,90,0.00,,,0.00,WeatherCatV1.15B25,2013-04-23 07:56:00,
2013-04-23 04:01:00,67.2,64.2,30.01,NE,53,0.0,8.0,90,0.00,,,0.00,WeatherCatV1.15B25,2013-04-23 08:01:00,
2013-04-23 04:06:00,67.1,64.1,30.01,East,94,4.0,7.0,90,0.00,,,0.00,WeatherCatV1.15B25,2013-04-23 08:06:00,
2013-04-23 04:11:00,67.1,64.1,30.01,North,349,0.0,8.0,90,0.00,,,0.00,WeatherCatV1.15B25,2013-04-23 08:11:00,
2013-04-23 04:16:00,67.1,64.1,30.01,NNE,20,0.0,2.0,90,0.00,,,0.00,WeatherCatV1.15B25,2013-04-23 08:16:00,
2013-04-23 04:21:00,67.1,64.1,30.01,NNE,22,2.0,3.0,90,0.00,,,0.00,WeatherCatV1.15B25,2013-04-23 08:21:00,
2013-04-23 04:26:00,67.1,64.1,30.01,ENE,75,0.0,6.0,90,0.00,,,0.00,WeatherCatV1.15B25,2013-04-23 08:26:00,
2013-04-23 04:31:00,67.1,64.1,30.01,NNW,347,2.0,5.0,90,0.00,,,0.00,WeatherCatV1.15B25,2013-04-23 08:31:00,
2013-04-23 04:36:00,67.1,64.1,30.00,ENE,61,1.0,6.0,90,0.00,,,0.00,WeatherCatV1.15B25,2013-04-23 08:36:00,
2013-04-23 04:41:00,67.1,64.1,30.00,NNE,15,0.0,6.0,90,0.00,,,0.00,WeatherCatV1.15B25,2013-04-23 08:41:00,
2013-04-23 04:46:00,67.1,64.1,30.00,North,350,7.0,7.0,90,0.00,,,0.00,WeatherCatV1.15B25,2013-04-23 08:46:00,
2013-04-23 04:51:00,67.1,64.1,30.00,NNE,21,6.0,8.0,90,0.00,,,0.00,WeatherCatV1.15B25,2013-04-23 08:51:00,
2013-04-23 04:56:00,67.1,64.1,30.00,North,11,0.0,2.0,90,0.00,,,0.00,WeatherCatV1.15B25,2013-04-23 08:56:00,
2013-04-23 05:01:00,67.1,64.1,30.00,North,5,6.0,6.0,90,0.00,,,0.00,WeatherCatV1.15B25,2013-04-23 09:01:00,
2013-04-23 05:06:00,67.1,64.1,30.00,NNE,28,2.0,11.0,90,0.00,,,0.00,WeatherCatV1.15B25,2013-04-23 09:06:00,
2013-04-23 05:11:00,67.1,64.1,30.01,NNE,32,1.0,8.0,90,0.00,,,0.00,WeatherCatV1.15B25,2013-04-23 09:11:00,
2013-04-23 05:16:00,67.1,64.1,30.01,NE,54,3.0,7.0,90,0.00,,,0.00,WeatherCatV1.15B25,2013-04-23 09:16:00,
2013-04-23 05:21:00,67.1,64.1,30.01,ENE,69,1.0,5.0,90,0.00,,,0.00,WeatherCatV1.15B25,2013-04-23 09:21:00,
2013-04-23 05:26:00,67.1,64.1,30.01,NNE,12,4.0,7.0,90,0.00,,,0.00,WeatherCatV1.15B25,2013-04-23 09:26:00,
2013-04-23 05:31:00,67.1,64.1,30.01,NE,47,0.0,7.0,90,0.00,,,0.00,WeatherCatV1.15B25,2013-04-23 09:31:00,
2013-04-23 05:36:00,67.1,64.1,30.01,NE,49,1.0,2.0,90,0.00,,,0.00,WeatherCatV1.15B25,2013-04-23 09:36:00,
2013-04-23 05:41:00,67.2,64.5,30.01,NNE,32,1.0,9.0,91,0.00,,,0.00,WeatherCatV1.15B25,2013-04-23 09:41:00,
2013-04-23 05:46:00,67.2,64.2,30.01,North,5,0.0,7.0,90,0.00,,,0.00,WeatherCatV1.15B25,2013-04-23 09:46:00,
2013-04-23 05:51:00,67.2,64.2,30.01,NE,36,0.0,1.0,90,0.00,,,0.00,WeatherCatV1.15B25,2013-04-23 09:51:00,
2013-04-23 05:56:00,67.2,64.2,30.01,North,5,2.0,7.0,90,0.00,,,0.00,WeatherCatV1.15B25,2013-04-23 09:56:00,
2013-04-23 06:01:00,67.2,64.5,30.01,ENE,76,4.0,5.0,91,0.00,,,0.00,WeatherCatV1.15B25,2013-04-23 10:01:00,
2013-04-23 06:06:00,67.1,64.1,30.01,ENE,61,1.0,4.0,90,0.00,,,0.00,WeatherCatV1.15B25,2013-04-23 10:06:00,
2013-04-23 06:11:00,67.1,64.1,30.02,ESE,105,0.0,7.0,90,0.00,,,0.00,WeatherCatV1.15B25,2013-04-23 10:11:00,
2013-04-23 06:16:00,67.1,64.1,30.02,East,88,6.0,7.0,90,0.00,,,0.00,WeatherCatV1.15B25,2013-04-23 10:16:00,
2013-04-23 06:21:00,67.1,64.1,30.02,ENE,59,4.0,5.0,90,0.00,,,0.00,WeatherCatV1.15B25,2013-04-23 10:21:00,
2013-04-23 06:26:00,67.1,64.4,30.02,NE,34,1.0,7.0,91,0.00,,,0.00,WeatherCatV1.15B25,2013-04-23 10:26:00,
2013-04-23 06:31:00,67.2,64.5,30.02,NNW,331,1.0,5.0,91,0.00,,,0.00,WeatherCatV1.15B25,2013-04-23 10:31:00,
2013-04-23 06:36:00,67.2,64.2,30.02,NNW,346,2.0,4.0,90,0.00,,,0.00,WeatherCatV1.15B25,2013-04-23 10:36:00,
2013-04-23 06:41:00,67.3,64.6,30.02,NE,50,0.0,2.0,91,0.00,,,0.00,WeatherCatV1.15B25,2013-04-23 10:41:00,
2013-04-23 06:46:00,67.3,64.3,30.03,ENE,77,0.0,6.0,90,0.00,,,0.00,WeatherCatV1.15B25,2013-04-23 10:46:00,
2013-04-23 06:51:00,67.3,64.3,30.02,ENE,74,4.0,5.0,90,0.00,,,0.00,WeatherCatV1.15B25,2013-04-23 10:51:00,
2013-04-23 06:56:00,67.3,64.3,30.03,NNE,13,5.0,7.0,90,0.00,,,0.00,WeatherCatV1.15B25,2013-04-23 10:56:00,
2013-04-23 07:01:00,67.3,64.6,30.03,NNW,344,3.0,4.0,91,0.00,,,0.00,WeatherCatV1.15B25,2013-04-23 11:01:00,
2013-04-23 07:06:00,67.3,64.6,30.03,ENE,67,0.0,2.0,91,0.00,,,0.00,WeatherCatV1.15B25,2013-04-23 11:06:00,
2013-04-23 07:11:00,67.4,64.7,30.03,NNW,344,1.0,5.0,91,0.00,,,0.00,WeatherCatV1.15B25,2013-04-23 11:11:00,
2013-04-23 07:16:00,67.4,64.7,30.04,NNW,340,4.0,5.0,91,0.00,,,0.00,WeatherCatV1.15B25,2013-04-23 11:16:00,
2013-04-23 07:21:00,67.4,64.7,30.04,North,5,5.0,7.0,91,0.00,,,0.00,WeatherCatV1.15B25,2013-04-23 11:21:00,
2013-04-23 07:26:00,67.4,64.7,30.04,North,10,1.0,6.0,91,0.00,,,0.00,WeatherCatV1.15B25,2013-04-23 11:26:00,
2013-04-23 07:31:00,67.4,64.4,30.04,NE,53,1.0,1.0,90,0.00,,,0.00,WeatherCatV1.15B25,2013-04-23 11:31:00,
2013-04-23 07:36:00,67.4,64.7,30.04,NE,42,1.0,5.0,91,0.00,,,0.00,WeatherCatV1.15B25,2013-04-23 11:36:00,
2013-04-23 07:41:00,67.5,64.8,30.05,NNW,340,0.0,5.0,91,0.00,,,0.00,WeatherCatV1.15B25,2013-04-23 11:41:00,
2013-04-23 07:46:00,67.6,64.6,30.05,North,5,4.0,6.0,90,0.00,,,0.00,WeatherCatV1.15B25,2013-04-23 11:46:00,
2013-04-23 07:51:00,67.6,64.6,30.05,East,85,3.0,7.0,90,0.00,,,0.00,WeatherCatV1.15B25,2013-04-23 11:51:00,
2013-04-23 07:56:00,67.7,64.7,30.05,ENE,74,0.0,6.0,90,0.00,,,0.00,WeatherCatV1.15B25,2013-04-23 11:56:00,
2013-04-23 08:01:00,67.8,64.8,30.05,SE,132,2.0,8.0,90,0.00,,,0.00,WeatherCatV1.15B25,2013-04-23 12:01:00,
2013-04-23 08:06:00,67.9,64.9,30.05,ENE,75,4.0,6.0,90,0.00,,,0.00,WeatherCatV1.15B25,2013-04-23 12:06:00,
2013-04-23 08:11:00,68.0,64.6,30.06,East,99,5.0,5.0,89,0.00,,,0.00,WeatherCatV1.15B25,2013-04-23 12:11:00,
2013-04-23 08:16:00,68.1,64.7,30.06,NE,53,1.0,6.0,89,0.00,,,0.00,WeatherCatV1.15B25,2013-04-23 12:16:00,
2013-04-23 08:21:00,68.4,64.7,30.06,ENE,74,2.0,4.0,88,0.00,,,0.00,WeatherCatV1.15B25,2013-04-23 12:21:00,
2013-04-23 08:26:00,68.7,65.0,30.06,ESE,110,0.0,3.0,88,0.00,,,0.00,WeatherCatV1.15B25,2013-04-23 12:26:00,
2013-04-23 08:31:00,69.2,65.5,30.06,NNE,24,2.0,4.0,88,0.00,,,0.00,WeatherCatV1.15B25,2013-04-23 12:31:00,
2013-04-23 08:36:00,69.6,65.6,30.06,North,0,4.0,7.0,87,0.00,,,0.00,WeatherCatV1.15B25,2013-04-23 12:36:00,
2013-04-23 08:41:00,69.6,65.2,30.06,North,5,3.0,5.0,86,0.00,,,0.00,WeatherCatV1.15B25,2013-04-23 12:41:00,
2013-04-23 08:46:00,69.6,65.2,30.06,ESE,103,5.0,7.0,86,0.00,,,0.00,WeatherCatV1.15B25,2013-04-23 12:46:00,
2013-04-23 08:51:00,69.7,65.3,30.06,NNW,348,3.0,5.0,86,0.00,,,0.00,WeatherCatV1.15B25,2013-04-23 12:51:00,
2013-04-23 08:56:00,70.2,65.8,30.06,NNW,346,1.0,5.0,86,0.00,,,0.00,WeatherCatV1.15B25,2013-04-23 12:56:00,
2013-04-23 09:01:00,70.5,65.4,30.07,NNW,346,6.0,9.0,84,0.00,,,0.00,WeatherCatV1.15B25,2013-04-23 13:01:00,
2013-04-23 09:06:00,70.9,65.8,30.07,East,88,4.0,7.0,84,0.00,,,0.00,WeatherCatV1.15B25,2013-04-23 13:06:00,
2013-04-23 09:11:00,71.2,65.4,30.07,ENE,58,2.0,8.0,82,0.00,,,0.00,WeatherCatV1.15B25,2013-04-23 13:11:00,
2013-04-23 09:16:00,71.2,65.8,30.07,North,0,3.0,7.0,83,0.00,,,0.00,WeatherCatV1.15B25,2013-04-23 13:16:00,
2013-04-23 09:21:00,71.7,66.2,30.07,NE,44,1.0,4.0,83,0.00,,,0.00,WeatherCatV1.15B25,2013-04-23 13:21:00,
2013-04-23 09:26:00,72.4,65.9,30.07,NNW,338,3.0,8.0,80,0.00,,,0.00,WeatherCatV1.15B25,2013-04-23 13:26:00,
2013-04-23 09:31:00,73.0,66.5,30.08,North,350,2.0,9.0,80,0.00,,,0.00,WeatherCatV1.15B25,2013-04-23 13:31:00,
2013-04-23 09:36:00,73.3,66.4,30.08,North,0,2.0,6.0,79,0.00,,,0.00,WeatherCatV1.15B25,2013-04-23 13:36:00,
2013-04-23 09:41:00,73.4,66.5,30.08,NW,321,3.0,5.0,79,0.00,,,0.00,WeatherCatV1.15B25,2013-04-23 13:41:00,
2013-04-23 09:46:00,73.8,66.5,30.08,WNW,299,2.0,8.0,78,0.00,,,0.00,WeatherCatV1.15B25,2013-04-23 13:46:00,
2013-04-23 09:51:00,74.1,66.4,30.08,NE,46,1.0,10.0,77,0.00,,,0.00,WeatherCatV1.15B25,2013-04-23 13:51:00,
2013-04-23 09:56:00,74.4,67.1,30.08,ENE,66,6.0,7.0,78,0.00,,,0.00,WeatherCatV1.15B25,2013-04-23 13:56:00,
2013-04-23 10:01:00,75.0,66.9,30.08,NW,318,5.0,8.0,76,0.00,,,0.00,WeatherCatV1.15B25,2013-04-23 14:01:00,
2013-04-23 10:06:00,75.6,67.5,30.08,NNE,23,1.0,9.0,76,0.00,,,0.00,WeatherCatV1.15B25,2013-04-23 14:06:00,
2013-04-23 10:11:00,76.0,67.1,30.08,East,91,6.0,8.0,74,0.00,,,0.00,WeatherCatV1.15B25,2013-04-23 14:11:00,
2013-04-23 10:16:00,75.7,66.8,30.09,NNE,22,5.0,7.0,74,0.00,,,0.00,WeatherCatV1.15B25,2013-04-23 14:16:00,
2013-04-23 10:21:00,75.3,66.8,30.09,NNW,327,4.0,4.0,75,0.00,,,0.00,WeatherCatV1.15B25,2013-04-23 14:21:00,
2013-04-23 10:26:00,75.2,66.7,30.09,East,94,5.0,7.0,75,0.00,,,0.00,WeatherCatV1.15B25,2013-04-23 14:26:00,
2013-04-23 10:31:00,75.3,66.8,30.09,East,96,0.0,7.0,75,0.00,,,0.00,WeatherCatV1.15B25,2013-04-23 14:31:00,
2013-04-23 10:36:00,75.5,67.0,30.09,NNE,25,2.0,7.0,75,0.00,,,0.00,WeatherCatV1.15B25,2013-04-23 14:36:00,
2013-04-23 10:41:00,75.5,67.0,30.09,East,84,4.0,8.0,75,0.00,,,0.00,WeatherCatV1.15B25,2013-04-23 14:41:00,
2013-04-23 10:46:00,75.5,67.0,30.09,ESE,111,4.0,6.0,75,0.00,,,0.00,WeatherCatV1.15B25,2013-04-23 14:46:00,
2013-04-23 10:51:00,76.0,67.5,30.10,NE,40,5.0,6.0,75,0.00,,,0.00,WeatherCatV1.15B25,2013-04-23 14:51:00,
2013-04-23 10:56:00,76.2,67.3,30.09,WNW,284,4.0,9.0,74,0.00,,,0.00,WeatherCatV1.15B25,2013-04-23 14:56:00,
2013-04-23 11:01:00,76.5,67.2,30.09,ESE,107,5.0,9.0,73,0.00,,,0.00,WeatherCatV1.15B25,2013-04-23 15:01:00,
2013-04-23 11:06:00,77.0,68.8,30.09,North,5,0.0,8.0,76,0.00,,,0.00,WeatherCatV1.15B25,2013-04-23 15:06:00,
2013-04-23 11:10:00,77.6,68.6,30.09,NNE,21,3.0,5.0,74,0.00,,,0.00,WeatherCatV1.15B25,2013-04-23 15:10:00,
2013-04-23 11:11:00,77.8,68.0,30.09,ENE,74,3.0,7.0,72,0.00,,,0.00,WeatherCatV1.15B25,2013-04-23 15:11:00,
2013-04-23 11:15:00,77.9,67.7,30.09,NE,45,3.0,8.0,71,0.00,,,0.00,WeatherCatV1.15B25,2013-04-23 15:15:00,
2013-04-23 11:20:00,77.9,67.3,30.09,ENE,68,3.0,9.0,70,0.00,,,0.00,WeatherCatV1.15B25,2013-04-23 15:20:00,
2013-04-23 11:25:00,77.9,67.3,30.09,ENE,68,3.0,9.0,70,0.00,,,0.00,WeatherCatV1.15B25,2013-04-23 15:25:00,
2013-04-23 11:30:00,77.9,67.3,30.09,ENE,68,3.0,9.0,70,0.00,,,0.00,WeatherCatV1.15B25,2013-04-23 15:30:00,
2013-04-23 11:35:00,78.2,68.0,30.09,ENE,68,4.0,10.0,71,0.00,,,0.00,WeatherCatV1.15B25,2013-04-23 15:35:00,
2013-04-23 11:40:00,78.2,68.0,30.09,ENE,68,4.0,10.0,71,0.00,,,0.00,WeatherCatV1.15B25,2013-04-23 15:40:00,
2013-04-23 11:45:00,78.2,68.0,30.09,ENE,68,4.0,10.0,71,0.00,,,0.00,WeatherCatV1.15B25,2013-04-23 15:45:00,
2013-04-23 11:50:00,78.5,67.5,30.09,East,90,4.0,10.0,69,0.00,,,0.00,WeatherCatV1.15B25,2013-04-23 15:50:00,
2013-04-23 11:55:00,78.5,67.5,30.09,East,90,4.0,10.0,69,0.00,,,0.00,WeatherCatV1.15B25,2013-04-23 15:55:00,
2013-04-23 12:00:00,78.5,67.5,30.09,East,90,4.0,10.0,69,0.00,,,0.00,WeatherCatV1.15B25,2013-04-23 16:00:00,
2013-04-23 12:05:00,79.8,67.4,30.09,ESE,112,4.0,10.0,66,0.00,,,0.00,WeatherCatV1.15B25,2013-04-23 16:05:00,
2013-04-23 12:10:00,79.8,67.4,30.09,ESE,112,4.0,10.0,66,0.00,,,0.00,WeatherCatV1.15B25,2013-04-23 16:10:00,
2013-04-23 12:15:00,79.8,67.4,30.09,ESE,112,4.0,10.0,66,0.00,,,0.00,WeatherCatV1.15B25,2013-04-23 16:15:00,
2013-04-23 12:20:00,80.3,68.3,30.08,ESE,112,3.0,9.0,67,0.00,,,0.00,WeatherCatV1.15B25,2013-04-23 16:20:00,
2013-04-23 12:25:00,80.3,68.3,30.08,ESE,112,3.0,9.0,67,0.00,,,0.00,WeatherCatV1.15B25,2013-04-23 16:25:00,
2013-04-23 12:30:00,80.3,68.3,30.08,ESE,112,3.0,9.0,67,0.00,,,0.00,WeatherCatV1.15B25,2013-04-23 16:30:00,
2013-04-23 12:35:00,81.6,67.3,30.08,ENE,68,3.0,12.0,62,0.00,,,0.00,WeatherCatV1.15B25,2013-04-23 16:35:00,
2013-04-23 12:40:00,81.6,67.3,30.08,ENE,68,3.0,12.0,62,0.00,,,0.00,WeatherCatV1.15B25,2013-04-23 16:40:00,
2013-04-23 12:45:00,81.6,67.3,30.08,ENE,68,3.0,12.0,62,0.00,,,0.00,WeatherCatV1.15B25,2013-04-23 16:45:00,
2013-04-23 12:50:00,82.2,67.9,30.07,ENE,68,3.0,8.0,62,0.00,,,0.00,WeatherCatV1.15B25,2013-04-23 16:50:00,
2013-04-23 12:55:00,82.2,67.9,30.07,ENE,68,3.0,8.0,62,0.00,,,0.00,WeatherCatV1.15B25,2013-04-23 16:55:00,
2013-04-23 13:00:00,82.2,67.9,30.07,ENE,68,3.0,8.0,62,0.00,,,0.00,WeatherCatV1.15B25,2013-04-23 17:00:00,
2013-04-23 13:05:00,82.1,67.8,30.06,East,90,3.0,9.0,62,0.00,,,0.00,WeatherCatV1.15B25,2013-04-23 17:05:00,
2013-04-23 13:10:00,82.1,67.8,30.06,East,90,3.0,9.0,62,0.00,,,0.00,WeatherCatV1.15B25,2013-04-23 17:10:00,
2013-04-23 13:15:00,82.1,67.8,30.06,East,90,3.0,9.0,62,0.00,,,0.00,WeatherCatV1.15B25,2013-04-23 17:15:00,
2013-04-23 13:20:00,83.4,68.0,30.06,ENE,68,3.0,8.0,60,0.00,,,0.00,WeatherCatV1.15B25,2013-04-23 17:20:00,
2013-04-23 13:25:00,83.4,68.0,30.06,ENE,68,3.0,8.0,60,0.00,,,0.00,WeatherCatV1.15B25,2013-04-23 17:25:00,
2013-04-23 13:30:00,83.4,68.0,30.06,ENE,68,3.0,8.0,60,0.00,,,0.00,WeatherCatV1.15B25,2013-04-23 17:30:00,
2013-04-23 13:35:00,83.8,66.9,30.05,East,90,3.0,8.0,57,0.00,,,0.00,WeatherCatV1.15B25,2013-04-23 17:35:00,
2013-04-23 13:40:00,83.8,66.9,30.05,East,90,3.0,8.0,57,0.00,,,0.00,WeatherCatV1.15B25,2013-04-23 17:40:00,
2013-04-23 13:45:00,83.8,66.9,30.05,East,90,3.0,8.0,57,0.00,,,0.00,WeatherCatV1.15B25,2013-04-23 17:45:00,
2013-04-23 13:50:00,83.8,66.4,30.05,ENE,68,3.0,7.0,56,0.00,,,0.00,WeatherCatV1.15B25,2013-04-23 17:50:00,
2013-04-23 13:55:00,83.8,66.4,30.05,ENE,68,3.0,7.0,56,0.00,,,0.00,WeatherCatV1.15B25,2013-04-23 17:55:00,
2013-04-23 14:00:00,83.8,66.4,30.05,ENE,68,3.0,7.0,56,0.00,,,0.00,WeatherCatV1.15B25,2013-04-23 18:00:00,
2013-04-23 14:05:00,82.9,66.1,30.04,East,90,3.0,7.0,57,0.00,,,0.00,WeatherCatV1.15B25,2013-04-23 18:05:00,
2013-04-23 14:10:00,82.9,66.1,30.04,East,90,3.0,7.0,57,0.00,,,0.00,WeatherCatV1.15B25,2013-04-23 18:10:00,
2013-04-23 14:15:00,82.9,66.1,30.04,East,90,3.0,7.0,57,0.00,,,0.00,WeatherCatV1.15B25,2013-04-23 18:15:00,
2013-04-23 14:20:00,83.8,65.9,30.04,ENE,68,3.0,10.0,55,0.00,,,0.00,WeatherCatV1.15B25,2013-04-23 18:20:00,
2013-04-23 14:25:00,83.8,65.9,30.04,ENE,68,3.0,10.0,55,0.00,,,0.00,WeatherCatV1.15B25,2013-04-23 18:25:00,
2013-04-23 14:30:00,83.8,65.9,30.04,ENE,68,3.0,10.0,55,0.00,,,0.00,WeatherCatV1.15B25,2013-04-23 18:30:00,
2013-04-23 14:35:00,83.9,65.4,30.04,NW,315,3.0,12.0,54,0.00,,,0.00,WeatherCatV1.15B25,2013-04-23 18:35:00,
2013-04-23 14:40:00,83.9,65.4,30.04,NW,315,3.0,12.0,54,0.00,,,0.00,WeatherCatV1.15B25,2013-04-23 18:40:00,
2013-04-23 14:45:00,83.9,65.4,30.04,NW,315,3.0,12.0,54,0.00,,,0.00,WeatherCatV1.15B25,2013-04-23 18:45:00,
2013-04-23 14:50:00,84.2,66.3,30.03,ENE,68,2.0,8.0,55,0.00,,,0.00,WeatherCatV1.15B25,2013-04-23 18:50:00,
2013-04-23 14:55:00,84.2,66.3,30.03,ENE,68,2.0,8.0,55,0.00,,,0.00,WeatherCatV1.15B25,2013-04-23 18:55:00,
2013-04-23 15:00:00,84.2,66.3,30.03,ENE,68,2.0,8.0,55,0.00,,,0.00,WeatherCatV1.15B25,2013-04-23 19:00:00,
2013-04-23 15:05:00,84.6,65.6,30.03,East,90,3.0,10.0,53,0.00,,,0.00,WeatherCatV1.15B25,2013-04-23 19:05:00,
2013-04-23 15:10:00,84.6,65.6,30.03,East,90,3.0,10.0,53,0.00,,,0.00,WeatherCatV1.15B25,2013-04-23 19:10:00,
2013-04-23 15:15:00,84.6,65.6,30.03,East,90,3.0,10.0,53,0.00,,,0.00,WeatherCatV1.15B25,2013-04-23 19:15:00,
2013-04-23 15:20:00,85.3,65.6,30.03,East,90,3.0,9.0,52,0.00,,,0.00,WeatherCatV1.15B25,2013-04-23 19:20:00,
2013-04-23 15:25:00,85.3,65.6,30.03,East,90,3.0,9.0,52,0.00,,,0.00,WeatherCatV1.15B25,2013-04-23 19:25:00,
2013-04-23 15:30:00,85.3,65.6,30.03,East,90,3.0,9.0,52,0.00,,,0.00,WeatherCatV1.15B25,2013-04-23 19:30:00,
2013-04-23 15:35:00,85.2,66.1,30.02,NNW,338,3.0,10.0,53,0.00,,,0.00,WeatherCatV1.15B25,2013-04-23 19:35:00,
2013-04-23 15:40:00,85.2,66.1,30.02,NNW,338,3.0,10.0,53,0.00,,,0.00,WeatherCatV1.15B25,2013-04-23 19:40:00,
2013-04-23 15:45:00,85.2,66.1,30.02,NNW,338,3.0,10.0,53,0.00,,,0.00,WeatherCatV1.15B25,2013-04-23 19:45:00,
2013-04-23 15:50:00,85.7,64.9,30.02,ENE,68,3.0,9.0,50,0.00,,,0.00,WeatherCatV1.15B25,2013-04-23 19:50:00,
2013-04-23 15:55:00,85.7,64.9,30.02,ENE,68,3.0,9.0,50,0.00,,,0.00,WeatherCatV1.15B25,2013-04-23 19:55:00,
2013-04-23 16:00:00,85.7,64.9,30.02,ENE,68,3.0,9.0,50,0.00,,,0.00,WeatherCatV1.15B25,2013-04-23 20:00:00,
2013-04-23 16:05:00,86.1,64.7,30.01,ENE,68,3.0,8.0,49,0.00,,,0.00,WeatherCatV1.15B25,2013-04-23 20:05:00,
2013-04-23 16:10:00,86.1,64.7,30.01,ENE,68,3.0,8.0,49,0.00,,,0.00,WeatherCatV1.15B25,2013-04-23 20:10:00,
2013-04-23 16:15:00,86.1,64.7,30.01,ENE,68,3.0,8.0,49,0.00,,,0.00,WeatherCatV1.15B25,2013-04-23 20:15:00,
2013-04-23 16:20:00,86.5,65.0,30.01,East,90,3.0,12.0,49,0.00,,,0.00,WeatherCatV1.15B25,2013-04-23 20:20:00,
2013-04-23 16:25:00,86.5,65.0,30.01,East,90,3.0,12.0,49,0.00,,,0.00,WeatherCatV1.15B25,2013-04-23 20:25:00,
2013-04-23 16:30:00,86.5,65.0,30.01,East,90,3.0,12.0,49,0.00,,,0.00,WeatherCatV1.15B25,2013-04-23 20:30:00,
2013-04-23 16:35:00,86.1,65.2,30.00,ENE,68,2.0,7.0,50,0.00,,,0.00,WeatherCatV1.15B25,2013-04-23 20:35:00,
2013-04-23 16:40:00,86.1,65.2,30.00,ENE,68,2.0,7.0,50,0.00,,,0.00,WeatherCatV1.15B25,2013-04-23 20:40:00,
2013-04-23 16:45:00,86.1,65.2,30.00,ENE,68,2.0,7.0,50,0.00,,,0.00,WeatherCatV1.15B25,2013-04-23 20:45:00,
2013-04-23 16:50:00,85.1,64.3,30.00,ENE,68,3.0,8.0,50,0.00,,,0.00,WeatherCatV1.15B25,2013-04-23 20:50:00,
2013-04-23 16:55:00,85.1,64.3,30.00,ENE,68,3.0,8.0,50,0.00,,,0.00,WeatherCatV1.15B25,2013-04-23 20:55:00,
2013-04-23 17:00:00,85.1,64.3,30.00,ENE,68,3.0,8.0,50,0.00,,,0.00,WeatherCatV1.15B25,2013-04-23 21:00:00,
2013-04-23 17:05:00,85.0,64.2,30.00,ESE,112,4.0,11.0,50,0.00,,,0.00,WeatherCatV1.15B25,2013-04-23 21:05:00,
2013-04-23 17:10:00,85.0,64.2,30.00,ESE,112,4.0,11.0,50,0.00,,,0.00,WeatherCatV1.15B25,2013-04-23 21:10:00,
2013-04-23 17:15:00,85.0,64.2,30.00,ESE,112,4.0,11.0,50,0.00,,,0.00,WeatherCatV1.15B25,2013-04-23 21:15:00,
2013-04-23 17:20:00,85.7,64.9,30.00,North,0,3.0,8.0,50,0.00,,,0.00,WeatherCatV1.15B25,2013-04-23 21:20:00,
2013-04-23 17:25:00,85.7,64.9,30.00,North,0,3.0,8.0,50,0.00,,,0.00,WeatherCatV1.15B25,2013-04-23 21:25:00,
2013-04-23 17:30:00,85.7,64.9,30.00,North,0,3.0,8.0,50,0.00,,,0.00,WeatherCatV1.15B25,2013-04-23 21:30:00,
2013-04-23 17:35:00,85.8,63.2,30.00,East,90,3.0,10.0,47,0.00,,,0.00,WeatherCatV1.15B25,2013-04-23 21:35:00,
2013-04-23 17:40:00,85.8,63.2,30.00,East,90,3.0,10.0,47,0.00,,,0.00,WeatherCatV1.15B25,2013-04-23 21:40:00,
2013-04-23 17:45:00,85.8,63.2,30.00,East,90,3.0,10.0,47,0.00,,,0.00,WeatherCatV1.15B25,2013-04-23 21:45:00,
2013-04-23 17:50:00,85.9,62.7,30.00,ENE,68,3.0,9.0,46,0.00,,,0.00,WeatherCatV1.15B25,2013-04-23 21:50:00,
2013-04-23 17:55:00,85.9,62.7,30.00,ENE,68,3.0,9.0,46,0.00,,,0.00,WeatherCatV1.15B25,2013-04-23 21:55:00,
2013-04-23 18:00:00,85.9,62.7,30.00,ENE,68,3.0,9.0,46,0.00,,,0.00,WeatherCatV1.15B25,2013-04-23 22:00:00,
2013-04-23 18:05:00,85.0,63.1,30.00,East,90,4.0,9.0,48,0.00,,,0.00,WeatherCatV1.15B25,2013-04-23 22:05:00,
2013-04-23 18:10:00,85.0,63.1,30.00,East,90,4.0,9.0,48,0.00,,,0.00,WeatherCatV1.15B25,2013-04-23 22:10:00,
2013-04-23 18:23:00,85.0,63.1,30.00,East,90,4.0,9.0,48,0.00,,,0.00,WeatherCatV1.15B25,2013-04-23 22:23:00,
2013-04-23 18:28:00,84.7,62.8,30.00,East,86,2.0,2.0,48,0.00,,,0.00,WeatherCatV1.15B25,2013-04-23 22:28:00,
2013-04-23 18:33:00,84.6,62.7,30.00,North,349,2.0,8.0,48,0.00,,,0.00,WeatherCatV1.15B25,2013-04-23 22:33:00,
2013-04-23 18:38:00,84.3,62.4,30.00,East,86,2.0,10.0,48,0.00,,,0.00,WeatherCatV1.15B25,2013-04-23 22:38:00,
2013-04-23 18:43:00,83.8,62.6,30.00,North,0,5.0,11.0,49,0.00,,,0.00,WeatherCatV1.15B25,2013-04-23 22:43:00,
2013-04-23 18:48:00,83.4,62.2,30.00,East,96,2.0,5.0,49,0.00,,,0.00,WeatherCatV1.15B25,2013-04-23 22:48:00,
2013-04-23 18:53:00,83.1,62.5,30.00,NW,321,4.0,6.0,50,0.00,,,0.00,WeatherCatV1.15B25,2013-04-23 22:53:00,
2013-04-23 18:58:00,83.0,62.4,30.00,ENE,69,3.0,4.0,50,0.00,,,0.00,WeatherCatV1.15B25,2013-04-23 22:58:00,
2013-04-23 19:03:00,82.9,61.7,30.01,North,5,2.0,9.0,49,0.00,,,0.00,WeatherCatV1.15B25,2013-04-23 23:03:00,
2013-04-23 19:08:00,82.8,62.2,30.01,NE,39,1.0,2.0,50,0.00,,,0.00,WeatherCatV1.15B25,2013-04-23 23:08:00,
2013-04-23 19:13:00,82.7,62.7,30.01,NW,310,1.0,1.0,51,0.00,,,0.00,WeatherCatV1.15B25,2013-04-23 23:13:00,
2013-04-23 19:18:00,82.5,62.0,30.01,ENE,66,2.0,5.0,50,0.00,,,0.00,WeatherCatV1.15B25,2013-04-23 23:18:00,
2013-04-23 19:23:00,82.3,61.8,30.01,East,82,1.0,2.0,50,0.00,,,0.00,WeatherCatV1.15B25,2013-04-23 23:23:00,
2013-04-23 19:28:00,82.1,62.1,30.01,ENE,63,0.0,6.0,51,0.00,,,0.00,WeatherCatV1.15B25,2013-04-23 23:28:00,
2013-04-23 19:32:00,81.8,61.9,30.01,NNE,19,2.0,8.0,51,0.00,,,0.00,WeatherCatV1.15B25,2013-04-23 23:32:00,
2013-04-23 19:34:00,81.8,62.4,30.01,North,5,1.0,6.0,52,0.00,,,0.00,WeatherCatV1.15B25,2013-04-23 23:34:00,
2013-04-23 19:39:00,81.5,62.1,30.02,ESE,103,2.0,4.0,52,0.00,,,0.00,WeatherCatV1.15B25,2013-04-23 23:39:00,
2013-04-23 19:44:00,81.2,61.9,30.02,East,95,4.0,6.0,52,0.00,,,0.00,WeatherCatV1.15B25,2013-04-23 23:44:00,
2013-04-23 19:48:00,81.0,62.2,30.02,ENE,70,0.0,7.0,53,0.00,,,0.00,WeatherCatV1.15B25,2013-04-23 23:48:00,
2013-04-23 19:53:00,80.7,62.0,30.02,ENE,75,0.0,7.0,53,0.00,,,0.00,WeatherCatV1.15B25,2013-04-23 23:53:00,
2013-04-23 19:58:00,80.4,62.2,30.02,East,90,1.0,7.0,54,0.00,,,0.00,WeatherCatV1.15B25,2013-04-23 23:58:00,
2013-04-23 20:03:00,80.2,62.0,30.02,ESE,105,2.0,7.0,54,0.00,,,0.00,WeatherCatV1.15B25,2013-04-24 00:03:00,
2013-04-23 20:08:00,79.9,62.3,30.02,ESE,113,4.0,5.0,55,0.00,,,0.00,WeatherCatV1.15B25,2013-04-24 00:08:00,
2013-04-23 20:13:00,79.7,62.1,30.02,ENE,59,1.0,6.0,55,0.00,,,0.00,WeatherCatV1.15B25,2013-04-24 00:13:00,
2013-04-23 20:18:00,79.5,62.4,30.02,ENE,69,1.0,6.0,56,0.00,,,0.00,WeatherCatV1.15B25,2013-04-24 00:18:00,
2013-04-23 20:23:00,79.3,62.2,30.02,NE,49,1.0,4.0,56,0.00,,,0.00,WeatherCatV1.15B25,2013-04-24 00:23:00,
2013-04-23 20:28:00,79.0,62.4,30.02,ENE,78,4.0,6.0,57,0.00,,,0.00,WeatherCatV1.15B25,2013-04-24 00:28:00,
2013-04-23 20:33:00,78.6,62.6,30.03,ENE,77,6.0,7.0,58,0.00,,,0.00,WeatherCatV1.15B25,2013-04-24 00:33:00,
2013-04-23 20:38:00,78.4,62.9,30.03,ENE,72,5.0,7.0,59,0.00,,,0.00,WeatherCatV1.15B25,2013-04-24 00:38:00,
2013-04-23 20:43:00,78.1,62.6,30.03,East,92,3.0,6.0,59,0.00,,,0.00,WeatherCatV1.15B25,2013-04-24 00:43:00,
2013-04-23 20:48:00,77.8,62.8,30.03,East,94,8.0,8.0,60,0.00,,,0.00,WeatherCatV1.15B25,2013-04-24 00:48:00,
2013-04-23 20:53:00,77.6,63.1,30.04,ESE,106,2.0,7.0,61,0.00,,,0.00,WeatherCatV1.15B25,2013-04-24 00:53:00,
2013-04-23 20:58:00,77.4,62.9,30.04,ESE,102,1.0,5.0,61,0.00,,,0.00,WeatherCatV1.15B25,2013-04-24 00:58:00,
2013-04-23 21:03:00,77.1,63.1,30.04,ESE,103,1.0,8.0,62,0.00,,,0.00,WeatherCatV1.15B25,2013-04-24 01:03:00,
2013-04-23 21:08:00,76.8,63.2,30.04,ESE,114,2.0,4.0,63,0.00,,,0.00,WeatherCatV1.15B25,2013-04-24 01:08:00,
2013-04-23 21:13:00,76.6,63.5,30.05,East,79,2.0,7.0,64,0.00,,,0.00,WeatherCatV1.15B25,2013-04-24 01:13:00,
2013-04-23 21:18:00,76.4,63.3,30.05,East,88,0.0,6.0,64,0.00,,,0.00,WeatherCatV1.15B25,2013-04-24 01:18:00,
2013-04-23 21:23:00,76.1,63.0,30.05,ENE,78,1.0,8.0,64,0.00,,,0.00,WeatherCatV1.15B25,2013-04-24 01:23:00,
2013-04-23 21:28:00,75.9,62.8,30.05,ENE,77,3.0,8.0,64,0.00,,,0.00,WeatherCatV1.15B25,2013-04-24 01:28:00,
2013-04-23 21:33:00,75.6,63.0,30.05,East,80,4.0,8.0,65,0.00,,,0.00,WeatherCatV1.15B25,2013-04-24 01:33:00,
2013-04-23 21:38:00,75.4,62.8,30.05,ENE,76,5.0,8.0,65,0.00,,,0.00,WeatherCatV1.15B25,2013-04-24 01:38:00,
2013-04-23 21:43:00,75.3,63.1,30.06,NE,41,8.0,10.0,66,0.00,,,0.00,WeatherCatV1.15B25,2013-04-24 01:43:00,
2013-04-23 21:48:00,75.1,62.9,30.06,ESE,106,7.0,9.0,66,0.00,,,0.00,WeatherCatV1.15B25,2013-04-24 01:48:00,
2013-04-23 21:53:00,74.8,62.7,30.06,East,79,2.0,8.0,66,0.00,,,0.00,WeatherCatV1.15B25,2013-04-24 01:53:00,
2013-04-23 21:58:00,74.6,62.9,30.06,East,86,4.0,8.0,67,0.00,,,0.00,WeatherCatV1.15B25,2013-04-24 01:58:00,
2013-04-23 22:03:00,74.4,62.7,30.07,ENE,74,5.0,9.0,67,0.00,,,0.00,WeatherCatV1.15B25,2013-04-24 02:03:00,
2013-04-23 22:08:00,74.2,62.5,30.07,ESE,104,1.0,8.0,67,0.00,,,0.00,WeatherCatV1.15B25,2013-04-24 02:08:00,
2013-04-23 22:13:00,74.0,62.8,30.07,East,97,8.0,8.0,68,0.00,,,0.00,WeatherCatV1.15B25,2013-04-24 02:13:00,
2013-04-23 22:18:00,73.7,62.5,30.07,NE,56,3.0,8.0,68,0.00,,,0.00,WeatherCatV1.15B25,2013-04-24 02:18:00,
2013-04-23 22:23:00,73.6,62.4,30.07,ENE,58,2.0,5.0,68,0.00,,,0.00,WeatherCatV1.15B25,2013-04-24 02:23:00,
2013-04-23 22:28:00,73.5,62.7,30.08,East,93,4.0,6.0,69,0.00,,,0.00,WeatherCatV1.15B25,2013-04-24 02:28:00,
2013-04-23 22:33:00,73.2,62.4,30.08,East,93,6.0,6.0,69,0.00,,,0.00,WeatherCatV1.15B25,2013-04-24 02:33:00,
2013-04-23 22:38:00,73.1,62.7,30.08,ESE,110,5.0,6.0,70,0.00,,,0.00,WeatherCatV1.15B25,2013-04-24 02:38:00,
2013-04-23 22:43:00,72.9,62.5,30.08,ESE,109,6.0,9.0,70,0.00,,,0.00,WeatherCatV1.15B25,2013-04-24 02:43:00,
2013-04-23 22:48:00,72.7,62.3,30.08,East,82,4.0,11.0,70,0.00,,,0.00,WeatherCatV1.15B25,2013-04-24 02:48:00,
2013-04-23 22:53:00,72.5,62.5,30.09,ENE,72,8.0,8.0,71,0.00,,,0.00,WeatherCatV1.15B25,2013-04-24 02:53:00,
2013-04-23 22:58:00,72.4,62.5,30.09,East,90,4.0,6.0,71,0.00,,,0.00,WeatherCatV1.15B25,2013-04-24 02:58:00,
2013-04-23 23:03:00,72.2,62.3,30.09,East,100,2.0,11.0,71,0.00,,,0.00,WeatherCatV1.15B25,2013-04-24 03:03:00,
2013-04-23 23:08:00,72.0,62.5,30.09,ESE,105,5.0,6.0,72,0.00,,,0.00,WeatherCatV1.15B25,2013-04-24 03:08:00,
2013-04-23 23:13:00,71.8,62.3,30.09,ENE,62,7.0,9.0,72,0.00,,,0.00,WeatherCatV1.15B25,2013-04-24 03:13:00,
2013-04-23 23:18:00,71.7,62.6,30.09,ESE,121,2.0,7.0,73,0.00,,,0.00,WeatherCatV1.15B25,2013-04-24 03:18:00,
2013-04-23 23:23:00,71.6,62.5,30.09,ESE,110,4.0,9.0,73,0.00,,,0.00,WeatherCatV1.15B25,2013-04-24 03:23:00,
2013-04-23 23:28:00,71.4,62.7,30.09,NE,50,2.0,8.0,74,0.00,,,0.00,WeatherCatV1.15B25,2013-04-24 03:28:00,
2013-04-23 23:33:00,71.2,62.5,30.09,ESE,114,5.0,11.0,74,0.00,,,0.00,WeatherCatV1.15B25,2013-04-24 03:33:00,
2013-04-23 23:38:00,71.1,62.4,30.09,ENE,61,9.0,9.0,74,0.00,,,0.00,WeatherCatV1.15B25,2013-04-24 03:38:00,
2013-04-23 23:43:00,70.9,62.2,30.09,East,80,2.0,5.0,74,0.00,,,0.00,WeatherCatV1.15B25,2013-04-24 03:43:00,
2013-04-23 23:48:00,70.8,62.5,30.09,East,81,6.0,6.0,75,0.00,,,0.00,WeatherCatV1.15B25,2013-04-24 03:48:00,
2013-04-23 23:53:00,70.6,62.3,30.09,NNE,24,4.0,7.0,75,0.00,,,0.00,WeatherCatV1.15B25,2013-04-24 03:53:00,
2013-04-23 23:58:00,70.4,62.1,30.09,East,80,4.0,7.0,75,0.00,,,0.00,WeatherCatV1.15B25,2013-04-24 03:58:00,